When you browse on this site, cookies collect data to enhance your experience and personalize the content and advertising you see.
Visit our Privacy Policy to learn more. By continuing to use the site, you agree to this use of cookies and data.
  • In Sweden
  • List of Countries
  • For 7 days
  • Water Temperature
  • Weather Map
  • Weather Widgets
  • user-avatar
    Login

    Hourly Weather Úrhida

    Today, 27 January, Monday

    Time Temperature Precipitation Wind Pressure Humidity
    00:00 +2°C° 0 mm 1 mps 748 mmHg 78%
    01:00 +1°C° 0 mm 0 mps 748 mmHg 78%
    02:00 +2°C° 0 mm 1 mps 748 mmHg 77%
    03:00 +2°C° 0 mm 1 mps 748 mmHg 77%
    04:00 +2°C° 0 mm 1 mps 747 mmHg 77%
    05:00 +2°C° 0 mm 1 mps 747 mmHg 78%
    06:00 +1°C° 0 mm 0 mps 747 mmHg 79%
    07:00 +1°C° 0 mm 0 mps 747 mmHg 80%
    08:00 +3°C° 0 mm 1 mps 747 mmHg 79%
    09:00 +3°C° 0 mm 1 mps 748 mmHg 77%
    10:00 +4°C° 0 mm 1 mps 748 mmHg 76%
    11:00 +4°C° 0 mm 2 mps 748 mmHg 73%
    12:00 +5°C° 0 mm 2 mps 747 mmHg 71%
    13:00 +6°C° 0 mm 2 mps 747 mmHg 68%
    14:00 +5°C° 0 mm 2 mps 747 mmHg 71%
    15:00 +6°C° 0 mm 1 mps 746 mmHg 74%
    16:00 +6°C° 0 mm 1 mps 746 mmHg 77%
    17:00 +5°C° 0 mm 1 mps 746 mmHg 80%
    18:00 +4°C° 0 mm 1 mps 746 mmHg 83%
    19:00 +3°C° 0 mm 1 mps 746 mmHg 86%
    20:00 +3°C° 0 mm 1 mps 745 mmHg 87%
    21:00 +3°C° 0 mm 1 mps 745 mmHg 87%
    22:00 +3°C° 0 mm 1 mps 745 mmHg 88%
    23:00 +2°C° 0 mm 2 mps 744 mmHg 90%

    Tomorrow, 28 January, Tuesday

    Time Temperature Precipitation Wind Pressure Humidity
    00:00 +2°C° 0 mm 2 mps 743 mmHg 91%
    01:00 +1°C° 0 mm 2 mps 743 mmHg 92%
    02:00 0°C° 0 mm 3 mps 742 mmHg 93%
    03:00 0°C° 0 mm 3 mps 741 mmHg 93%
    04:00 0°C° 0 mm 3 mps 740 mmHg 94%
    05:00 0°C° 0 mm 4 mps 740 mmHg 94%
    06:00 0°C° 0 mm 4 mps 740 mmHg 93%
    07:00 0°C° 0 mm 5 mps 739 mmHg 93%
    08:00 +1°C° 0.2 mm 5 mps 739 mmHg 92%
    09:00 +2°C° 0.2 mm 6 mps 738 mmHg 90%
    10:00 +3°C° 0.2 mm 6 mps 737 mmHg 89%
    11:00 +4°C° 0 mm 6 mps 737 mmHg 88%
    12:00 +5°C° 0 mm 6 mps 736 mmHg 86%
    13:00 +5°C° 0 mm 6 mps 736 mmHg 85%
    14:00 +6°C° 0.1 mm 5 mps 735 mmHg 86%
    15:00 +6°C° 0.1 mm 4 mps 735 mmHg 87%
    16:00 +7°C° 0.1 mm 3 mps 734 mmHg 88%
    17:00 +5°C° 1.1 mm 3 mps 734 mmHg 87%
    18:00 +5°C° 1.1 mm 4 mps 735 mmHg 87%
    19:00 +4°C° 1.1 mm 4 mps 735 mmHg 87%
    20:00 +4°C° 0.1 mm 4 mps 735 mmHg 81%
    21:00 +2°C° 0.1 mm 5 mps 736 mmHg 76%
    22:00 +2°C° 0.1 mm 5 mps 737 mmHg 70%
    23:00 +2°C° 0 mm 6 mps 737 mmHg 68%

    Day after tomorrow, 29 January, Wednesday

    Time Temperature Precipitation Wind Pressure Humidity
    00:00 +2°C° 0 mm 6 mps 738 mmHg 66%
    01:00 0°C° 0 mm 7 mps 738 mmHg 64%
    02:00 +1°C° 0 mm 6 mps 738 mmHg 65%
    03:00 +1°C° 0 mm 5 mps 739 mmHg 66%
    04:00 0°C° 0 mm 5 mps 739 mmHg 67%
    05:00 0°C° 0 mm 5 mps 739 mmHg 74%
    06:00 -1°C° 0 mm 5 mps 739 mmHg 81%
    07:00 -1°C° 0 mm 5 mps 739 mmHg 88%
    08:00 0°C° 0 mm 5 mps 739 mmHg 84%
    09:00 +1°C° 0 mm 6 mps 740 mmHg 80%
    10:00 +1°C° 0 mm 6 mps 740 mmHg 76%
    11:00 +2°C° 0 mm 6 mps 740 mmHg 71%
    12:00 +3°C° 0 mm 6 mps 740 mmHg 66%
    13:00 +4°C° 0 mm 6 mps 740 mmHg 60%
    14:00 +3°C° 0 mm 5 mps 740 mmHg 61%
    15:00 +3°C° 0 mm 5 mps 741 mmHg 61%
    16:00 +4°C° 0 mm 4 mps 741 mmHg 61%
    17:00 +2°C° 0 mm 5 mps 741 mmHg 62%
    18:00 +2°C° 0 mm 5 mps 742 mmHg 63%
    19:00 +1°C° 0 mm 5 mps 742 mmHg 64%
    20:00 +1°C° 0 mm 5 mps 743 mmHg 65%
    21:00 0°C° 0 mm 5 mps 743 mmHg 66%
    22:00 0°C° 0 mm 4 mps 743 mmHg 67%
    23:00 0°C° 0 mm 5 mps 744 mmHg 68%

    30 January, Thursday

    Time Temperature Precipitation Wind Pressure Humidity
    00:00 0°C° 0 mm 5 mps 744 mmHg 70%
    01:00 0°C° 0 mm 5 mps 744 mmHg 71%
    02:00 0°C° 0 mm 5 mps 745 mmHg 72%
    03:00 -1°C° 0 mm 5 mps 745 mmHg 73%
    04:00 -1°C° 0 mm 5 mps 746 mmHg 74%
    05:00 -2°C° 0 mm 6 mps 746 mmHg 75%
    06:00 -2°C° 0 mm 6 mps 747 mmHg 76%
    07:00 -2°C° 0 mm 7 mps 747 mmHg 77%
    08:00 -1°C° 0 mm 7 mps 748 mmHg 72%
    09:00 -1°C° 0 mm 8 mps 748 mmHg 67%
    10:00 0°C° 0 mm 8 mps 749 mmHg 63%
    11:00 +2°C° 0 mm 7 mps 749 mmHg 60%
    12:00 +2°C° 0 mm 7 mps 748 mmHg 57%
    13:00 +3°C° 0 mm 6 mps 748 mmHg 54%
    14:00 +3°C° 0 mm 5 mps 748 mmHg 57%
    15:00 +4°C° 0 mm 4 mps 748 mmHg 59%
    16:00 +3°C° 0 mm 3 mps 748 mmHg 62%
    17:00 +3°C° 0 mm 3 mps 748 mmHg 64%
    18:00 +2°C° 0 mm 3 mps 748 mmHg 66%
    19:00 +1°C° 0 mm 3 mps 748 mmHg 67%
    20:00 +1°C° 0 mm 3 mps 748 mmHg 69%
    21:00 +1°C° 0 mm 3 mps 748 mmHg 71%
    22:00 +1°C° 0 mm 3 mps 747 mmHg 73%
    23:00 +1°C° 0 mm 3 mps 747 mmHg 72%

    31 January, Friday

    Time Temperature Precipitation Wind Pressure Humidity
    00:00 +1°C° 0 mm 3 mps 747 mmHg 71%
    01:00 +1°C° 0 mm 3 mps 747 mmHg 70%
    02:00 +1°C° 0 mm 2 mps 746 mmHg 72%
    03:00 +1°C° 0 mm 2 mps 746 mmHg 75%
    04:00 +1°C° 0 mm 2 mps 746 mmHg 77%
    05:00 +1°C° 0 mm 2 mps 746 mmHg 78%
    06:00 +1°C° 0 mm 2 mps 746 mmHg 79%
    07:00 +1°C° 0 mm 2 mps 746 mmHg 80%
    08:00 +1°C° 0 mm 3 mps 746 mmHg 75%
    09:00 +2°C° 0 mm 3 mps 746 mmHg 71%
    10:00 +4°C° 0 mm 4 mps 746 mmHg 67%
    11:00 +4°C° 0 mm 4 mps 745 mmHg 66%
    12:00 +4°C° 0 mm 4 mps 745 mmHg 66%
    13:00 +5°C° 0 mm 4 mps 744 mmHg 65%
    14:00 +5°C° 0 mm 4 mps 744 mmHg 65%
    15:00 +5°C° 0 mm 4 mps 744 mmHg 65%
    16:00 +5°C° 0 mm 3 mps 744 mmHg 66%
    17:00 +5°C° 0 mm 4 mps 744 mmHg 66%
    18:00 +5°C° 0 mm 4 mps 744 mmHg 67%
    19:00 +5°C° 0 mm 4 mps 744 mmHg 67%
    20:00 +5°C° 0 mm 4 mps 744 mmHg 68%
    21:00 +5°C° 0 mm 4 mps 745 mmHg 68%
    22:00 +6°C° 0 mm 4 mps 745 mmHg 68%
    23:00 +6°C° 0 mm 4 mps 745 mmHg 70%

    1 February, Saturday

    Time Temperature Precipitation Wind Pressure Humidity
    00:00 +6°C° 0 mm 4 mps 745 mmHg 71%
    01:00 +6°C° 0 mm 4 mps 745 mmHg 73%
    02:00 +5°C° 0 mm 4 mps 745 mmHg 76%
    03:00 +5°C° 0 mm 4 mps 745 mmHg 78%
    04:00 +5°C° 0 mm 3 mps 745 mmHg 81%
    05:00 +5°C° 0 mm 3 mps 746 mmHg 81%
    06:00 +5°C° 0 mm 3 mps 746 mmHg 81%
    07:00 +6°C° 0 mm 2 mps 746 mmHg 81%
    08:00 +5°C° 0 mm 3 mps 746 mmHg 79%
    09:00 +7°C° 0 mm 3 mps 747 mmHg 76%
    10:00 +8°C° 0 mm 3 mps 747 mmHg 74%
    11:00 +8°C° 0 mm 3 mps 747 mmHg 72%
    12:00 +8°C° 0 mm 3 mps 746 mmHg 69%
    13:00 +8°C° 0 mm 3 mps 746 mmHg 67%
    14:00 +8°C° 0 mm 3 mps 746 mmHg 67%
    15:00 +8°C° 0 mm 2 mps 746 mmHg 67%
    16:00 +8°C° 0 mm 2 mps 746 mmHg 68%
    17:00 +7°C° 0 mm 2 mps 746 mmHg 70%
    18:00 +7°C° 0 mm 2 mps 746 mmHg 72%
    19:00 +6°C° 0 mm 2 mps 746 mmHg 75%
    20:00 +6°C° 0 mm 2 mps 746 mmHg 77%
    21:00 +6°C° 0 mm 2 mps 746 mmHg 80%
    22:00 +6°C° 0 mm 2 mps 746 mmHg 82%
    23:00 +6°C° 0 mm 2 mps 746 mmHg 83%
    Show more